| time (UTC) | temp C | wind direction | speed KPH | gust KPH | rain 1hr cm | rain 24hr cm | rain mn cm | humidity % | barometer mb |
| 20260505035351 | 17 | 353 | 6.4 | 11.3 | 0.00 | 0.00 | 0.00 | 40 | 1009.0 |
| 20260505033848 | 17 | 349 | 6.4 | 12.9 | 0.00 | 0.00 | 0.00 | 39 | 1008.5 |
| 20260505032345 | 18 | 2 | 4.8 | 12.9 | 0.00 | 0.00 | 0.00 | 38 | 1008.5 |
| 20260505030842 | 18 | 357 | 3.2 | 9.7 | 0.00 | 0.00 | 0.00 | 37 | 1008.2 |
| 20260505025343 | 18 | 309 | 0.0 | 8.0 | 0.00 | 0.00 | 0.00 | 36 | 1008.2 |
| 20260505023841 | 18 | 275 | 0.0 | 6.4 | 0.00 | 0.00 | 0.00 | 36 | 1007.9 |
| 20260505022338 | 19 | 284 | 3.2 | 8.0 | 0.00 | 0.00 | 0.00 | 33 | 1007.9 |
| 20260505020834 | 20 | 325 | 1.6 | 9.7 | 0.00 | 0.00 | 0.00 | 32 | 1007.9 |
| 20260505015329 | 20 | 342 | 1.6 | 11.3 | 0.00 | 0.00 | 0.00 | 32 | 1007.9 |
| 20260505013826 | 20 | 356 | 1.6 | 8.0 | 0.00 | 0.00 | 0.00 | 32 | 1007.9 |
| 20260505012325 | 20 | 355 | 3.2 | 11.3 | 0.00 | 0.00 | 0.00 | 33 | 1007.4 |
| 20260505010825 | 20 | 356 | 6.4 | 12.9 | 0.00 | 0.00 | 0.00 | 32 | 1007.4 |
| 20260505005320 | 21 | 349 | 3.2 | 14.5 | 0.00 | 0.00 | 0.00 | 32 | 1007.1 |
| 20260505003817 | 20 | 348 | 3.2 | 9.7 | 0.00 | 0.00 | 0.00 | 32 | 1007.4 |
| 20260505002313 | 20 | 349 | 0.0 | 6.4 | 0.00 | 0.00 | 0.00 | 32 | 1007.4 |
| 20260505000811 | 21 | 20 | 3.2 | 11.3 | 0.00 | 0.00 | 0.00 | 32 | 1007.4 |
| 20260504235308 | 21 | 27 | 1.6 | 6.4 | 0.00 | 0.00 | 0.00 | 33 | 1007.1 |
| 20260504233805 | 21 | 6 | 1.6 | 9.7 | 0.00 | 0.00 | 0.00 | 33 | 1007.1 |
| 20260504232300 | 21 | 21 | 4.8 | 17.7 | 0.00 | 0.00 | 0.00 | 32 | 1007.1 |
| 20260504230755 | 23 | 83 | 3.2 | 11.3 | 0.00 | 0.00 | 0.00 | 30 | 1006.6 |
| 20260504225254 | 23 | 103 | 3.2 | 19.3 | 0.00 | 0.00 | 0.00 | 30 | 1006.6 |
| 20260504223751 | 25 | 171 | 3.2 | 12.9 | 0.00 | 0.00 | 0.00 | 28 | 1007.1 |
| 20260504222246 | 24 | 353 | 1.6 | 9.7 | 0.00 | 0.00 | 0.00 | 30 | 1007.1 |
| 20260504220743 | 23 | 197 | 0.0 | 8.0 | 0.00 | 0.00 | 0.00 | 30 | 1007.4 |
| 20260504215239 | 24 | 177 | 3.2 | 20.9 | 0.00 | 0.00 | 0.00 | 30 | 1007.1 |
| 20260504213735 | 25 | 174 | 1.6 | 11.3 | 0.00 | 0.00 | 0.00 | 29 | 1007.4 |
| 20260504212231 | 22 | 107 | 3.2 | 24.1 | 0.00 | 0.00 | 0.00 | 32 | 1007.9 |
| 20260504210728 | 22 | 135 | 3.2 | 11.3 | 0.00 | 0.00 | 0.00 | 31 | 1007.9 |
| 20260504205225 | 25 | 166 | 1.6 | 9.7 | 0.00 | 0.00 | 0.00 | 26 | 1007.9 |
| 20260504203720 | 23 | 145 | 1.6 | 11.3 | 0.00 | 0.00 | 0.00 | 30 | 1007.9 |
| 20260504202220 | 23 | 189 | 1.6 | 8.0 | 0.00 | 0.00 | 0.00 | 30 | 1008.2 |
| 20260504200718 | 23 | 203 | 1.6 | 19.3 | 0.00 | 0.00 | 0.00 | 28 | 1008.2 |
| 20260504195218 | 25 | 134 | 6.4 | 16.1 | 0.00 | 0.00 | 0.00 | 28 | 1007.9 |
| 20260504193714 | 24 | 192 | 3.2 | 9.7 | 0.00 | 0.00 | 0.00 | 29 | 1008.2 |
| 20260504192213 | 21 | 159 | 1.6 | 8.0 | 0.00 | 0.00 | 0.00 | 29 | 1008.5 |
| 20260504190709 | 21 | 8 | 0.0 | 4.8 | 0.00 | 0.00 | 0.00 | 29 | 1009.0 |
| 20260504185205 | 23 | 109 | 1.6 | 11.3 | 0.00 | 0.00 | 0.00 | 26 | 1008.5 |
| 20260504183659 | 22 | 84 | 3.2 | 16.1 | 0.00 | 0.00 | 0.00 | 26 | 1008.5 |
| 20260504182157 | 23 | 55 | 1.6 | 9.7 | 0.00 | 0.00 | 0.00 | 27 | 1008.5 |
| 20260504180657 | 22 | 93 | 1.6 | 14.5 | 0.00 | 0.00 | 0.00 | 28 | 1009.0 |
| 20260504175154 | 22 | 143 | 1.6 | 12.9 | 0.00 | 0.00 | 0.00 | 28 | 1009.0 |
| 20260504173652 | 22 | 114 | 0.0 | 8.0 | 0.00 | 0.00 | 0.00 | 28 | 1009.0 |
| 20260504172148 | 21 | 187 | 0.0 | 8.0 | 0.00 | 0.00 | 0.00 | 29 | 1009.0 |
| 20260504170644 | 21 | 349 | 1.6 | 6.4 | 0.00 | 0.00 | 0.00 | 31 | 1009.0 |
| 20260504150624 | 16 | 346 | 3.2 | 8.0 | 0.00 | 0.00 | 0.00 | 37 | 1010.1 |
| 20260504140609 | 16 | 346 | 3.2 | 8.0 | 0.00 | 0.00 | 0.00 | 38 | 1010.1 |
| 20260504130556 | 13 | 346 | 0.0 | 1.6 | 0.00 | 0.00 | 0.00 | 41 | 1009.7 |
| 20260504110531 | 15 | 341 | 3.2 | 9.7 | 0.00 | 0.00 | 0.00 | 39 | 1009.7 |
| 20260504100528 | 16 | 12 | 6.4 | 12.9 | 0.00 | 0.00 | 0.00 | 38 | 1010.1 |
| 20260504080504 | 15 | 355 | 0.0 | 0.0 | 0.00 | 0.00 | 0.00 | 44 | 1010.5 |
| 20260504050426 | 17 | 355 | 0.0 | 1.6 | 0.00 | 0.00 | 0.00 | 36 | 1010.5 |
| 20260504044921 | 17 | 355 | 3.2 | 6.4 | 0.00 | 0.00 | 0.00 | 35 | 1010.5 |
| 20260504043419 | 17 | 355 | 3.2 | 8.0 | 0.00 | 0.00 | 0.00 | 35 | 1010.5 |
| 20260504041915 | 18 | 355 | 3.2 | 8.0 | 0.00 | 0.00 | 0.00 | 35 | 1010.5 |
| 20260504040412 | 18 | 7 | 4.8 | 9.7 | 0.00 | 0.00 | 0.00 | 34 | 1010.1 |